{"data":{"norad_id":51951,"intl_designator":"2022-023F","name":"2022-023F","alt_names":[],"object_type":"PAYLOAD","status":"ACTIVE","operator":null,"country":"PRC","launch_date":"2022-03-05","launch_site_code":"XICLF","launch_vehicle":null,"mission":null,"orbit_class":"UNKNOWN","rcs_meters":null,"size_class":null,"mass_kg":null,"dimensions":null,"purposes":[],"wikipedia_slug":null,"has_3d_model":false,"image_url":null,"decayed_at":null,"tle_current":{"epoch":"2026-05-25T03:41:08.226816Z","epoch_age_seconds":55770,"freshness":"FRESH","line1":"1 51951U 22023F   26145.15356744  .00017549  00000+0  69948-3 0  9997","line2":"2 51951  63.4472 351.7890 0128327 343.6265  16.0718 15.18000810234213","mean_motion":15.1800081,"eccentricity":0.0128327,"inclination_deg":63.4472,"raan_deg":351.789,"arg_perigee_deg":343.6265,"mean_anomaly_deg":16.0718,"bstar":0.00069948,"rev_number":23421,"period_min":94.861609461197,"perigee_km":423.4658042169,"apogee_km":600.30093298519,"semimajor_km":6890.020368601,"source":"CELESTRAK","updated_at":"2026-05-25T13:37:57.570744Z"}}}